Skip Page Navigation
NASA JPL Caltech
NASA Logo - Jet Propulsion Laboratory + View the NASA Portal
+ Center for Near-Earth Object Studies
JPL Home Earth Solar System Stars & Galaxies Technology
JPL Solar System Dynamics
BODIES ORBITS EPHEMERIDES TOOLS PHYSICAL DATA DISCOVERY FAQ SITE MAP
JPL Small-Body Database Browser
Search: [ help ]  
10114 Greifswald (1992 RZ)
Classification: Main-belt Asteroid          SPK-ID: 2010114
Ephemeris | Orbit Diagram | Orbital Elements | Mission Design | Physical Parameters | Discovery Circumstances ]

[ show orbit diagram ]
Orbital Elements at Epoch 2459000.5 (2020-May-31.0) TDB
Reference: JPL 36 (heliocentric ecliptic J2000)
 Element Value Uncertainty (1-sigma)   Units 
e .03115153886667405 3.1862e-08  
a 2.880666346986452 1.1772e-08 au
q 2.790929157316383 9.1253e-08 au
i .9512279118211202 3.3446e-06 deg
node 279.7927816479009 0.0001974 deg
peri 158.0561683117187 0.00020385 deg
M 164.9452794769715 5.1826e-05 deg
tp 2458182.270269133099
(2018-Mar-04.77026913)
0.00025583 TDB
period 1785.820752470877
4.89
1.0946e-05
2.997e-08
d
yr
n .2015879810456346 1.2357e-09 deg/d
Q 2.97040353665652 1.2138e-08 au
  Orbit Determination Parameters
   # obs. used (total)      2627  
   data-arc span      15260 days (41.78 yr)  
   first obs. used      1978-11-29  
   last obs. used      2020-09-09  
   planetary ephem.      DE431  
   SB-pert. ephem.      SB431-N16  
   condition code      0  
   norm. resid. RMS      .46029  
   source      ORB  
   producer      Otto Matic  
   solution date      2020-Nov-13 03:08:36  

Additional Information
 Earth MOID = 1.80619 au 
 Jupiter MOID = 2.1023 au 
 T_jup = 3.293 
[ show covariance matrix ]

Ephemeris | Orbit Diagram | Orbital Elements | Mission Design | Physical Parameters | Discovery Circumstances ]

Physical Parameter Table
Parameter Symbol Value Units Sigma Reference Notes
absolute magnitude H 12.8   n/a MPO384846  
diameter diameter 7.857 km 0.193 urn:nasa:pds:neowise_diameters_albedos::2.0[mainbelt] (http://adsabs.harvard.edu/abs/2011ApJ...741...68M)  
rotation period rot_per 12.263 h n/a LCDB (Rev. 2020-October); Warner et al., 2009 Result based on less than full coverage, so that the period may be wrong by 30 percent or so.
Published Reference List:
[Erasmus, N.; Navarro-Meza, S.; McNeill, A.; Trilling, D.E.; et al. (2020) Ap. J. Suppl. Ser. 247, A13.]
geometric albedo albedo 0.261   0.024 urn:nasa:pds:neowise_diameters_albedos::2.0[mainbelt] (http://adsabs.harvard.edu/abs/2011ApJ...741...68M)  

10114 Greifswald           Discovered 1992 Sept. 4 by L. D. Schmadel and F. Borngen at Tautenburg.
Greifswald, the old German Hanse city on the Baltic Sea, is a scientific, economic and cultural center. The Ernst-Moritz-Arndt University, founded around 1456, has an astronomical tradition that has now been revived through the associated Greifswald Observatory. The name was suggested by the first discoverer.
NOTE: some special characters may not display properly (any characters within {} are an attempt to place the proper accent above a character)
Reference: 20010109/MPCPages.arcLast Updated: 2009-05-11

Alternate Designations
 1992 RZ = 1978 WF5 
Ephemeris | Orbit Diagram | Orbital Elements | Mission Design | Physical Parameters | Discovery Circumstances ]
ABOUT SSD CREDITS/AWARDS PRIVACY/COPYRIGHT GLOSSARY LINKS
FirstGov 2021-Jan-18 18:06 UT
(server date/time)  
NASA Home Page
Site Manager:   Ryan S. Park
Webmaster  Alan B. Chamberlin